Temperature
14 14 14 14 14 14 14 14 14 13 13 13 13 13 13 13 14 14 14 15 15 15 16 16 16 16 16 16 16 16 16 16 15 15 15 15 16 16
13 13 13 13 13 13 13 13 13 13 13 13 13 12 13 13 13 13 14 14 14 14 15 15 15 15 15 15 15 15 15 15 15 15 15 15 15 15
13 13 13 13 13 13 13 13 13 13 13 12 12 12 12 12 13 13 14 14 14 14 14 14 14 14 14 14 14 14 14 14 14 14 14 14 15 15
12 12 12 12 12 12 13 13 13 13 13 12 12 12 12 12 13 13 13 13 13 13 13 13 13 13 13 13 13 14 14 14 14 14 14 14 14 14
12 12 12 12 12 12 12 12 12 12 12 12 12 12 12 12 12 12 13 13 13 12 12 12 12 12 13 13 13 13 13 13 13 13 13 13 14 14
12 12 12 12 12 12 12 12 12 12 12 12 12 12 12 12 12 12 12 12 12 12 12 12 12 12 12 12 12 12 12 12 13 13 13 13 13 13
11 11 11 12 12 12 12 12 12 12 12 12 12 12 11 11 11 11 11 11 11 11 11 11 11 11 11 11 11 12 12 12 12 12 12 12 13 13
11 11 11 11 11 11 12 12 12 13 12 12 12 11 11 11 11 11 11 11 11 11 11 11 11 11 11 11 11 11 11 11 11 12 12 12 12 12
11 11 11 11 11 11 11 11 11 11 12 12 11 11 11 11 11 11 11 11 10 10 11 10 10 10 10 10 10 10 11 11 11 11 11 11 11 11
11 11 11 11 11 11 11 11 11 11 11 11 11 10 10 10 10 10 10 10 10 10 10 10 10 10 9 9 9 10 10 10 10 11 11 11 11 11
11 11 11 11 11 11 11 11 11 10 10 10 10 10 10 10 10 10 10 10 9 9 9 9 9 9 9 9 9 9 9 9 10 10 10 10 10 11
11 11 11 11 11 11 11 11 11 10 10 10 10 10 9 9 9 9 9 9 9 9 9 9 8 9 8 8 8 9 9 9 9 9 9 9 10 10
11 11 11 11 11 11 11 11 11 10 10 10 9 9 9 9 9 9 8 8 8 8 8 8 8 8 8 8 8 8 8 8 9 9 9 9 9 9
10 10 10 10 10 10 10 10 10 10 10 9 9 9 9 8 8 8 8 8 8 8 8 8 7 7 7 7 7 7 8 7 8 8 8 8 8 8
10 10 10 10 10 10 10 10 9 9 9 9 9 8 8 8 8 8 7 7 7 7 7 7 7 7 7 7 7 6 7 7 7 7 7 7 7 8
10 10 10 10 10 10 9 9 9 9 9 8 8 8 8 8 7 7 7 7 7 7 7 7 7 7 7 6 6 6 6 6 6 6 6 6 7 7
10 10 9 9 9 9 9 9 8 8 8 8 8 8 8 7 7 7 7 7 7 7 7 6 6 6 6 6 6 6 6 6 6 6 6 6 6 6
10 10 9 9 9 9 9 9 8 8 8 8 8 7 7 7 7 7 7 7 6 6 6 6 6 6 6 6 6 6 6 6 5 6 6 5 5 5
10 10 9 9 9 9 9 9 8 8 8 8 7 7 7 7 7 7 7 6 6 6 6 6 6 6 6 5 5 5 5 5 5 5 5 5 5 5
10 10 10 9 9 9 9 9 9 8 8 8 8 7 7 7 7 7 6 6 6 6 6 5 5 5 5 5 5 5 5 5 5 5 5 5 5 5
10 10 10 10 10 10 9 9 9 9 8 8 8 7 7 7 7 6 6 6 6 5 5 5 5 5 5 5 5 4 4 4 4 4 4 4 4 4
10 10 10 10 10 10 10 9 9 9 8 8 8 8 7 7 7 7 6 6 6 5 5 5 5 5 5 4 4 4 4 4 4 4 4 4 4 3
10 10 10 10 10 10 10 10 9 9 9 9 8 8 8 7 7 7 6 6 5 5 5 5 5 4 4 4 4 4 4 4 4 4 4 4 3 3
Wind_Speed
8 8 7 6 6 6 5 5 5 5 3 2 2 4 4 4 7 7 8 12 13 12 12 12 12 12 12 12 12 11 10 8 5 3 1 3 5 9
5 6 5 4 5 4 4 4 3 3 3 3 3 3 4 6 9 9 10 14 15 13 13 12 12 13 13 12 12 11 10 9 7 5 4 4 5 6
3 4 4 4 3 3 3 3 4 5 7 4 4 4 5 7 7 8 10 10 11 15 14 14 14 14 14 13 12 11 10 8 7 6 6 7 8 9
2 3 3 3 4 4 5 6 7 7 9 9 4 4 6 6 7 8 8 9 10 14 15 15 15 15 15 14 14 13 11 10 9 8 8 9 10 12
6 5 5 6 6 6 8 9 8 9 8 9 5 4 6 5 7 8 9 7 8 10 12 14 14 15 15 14 14 13 12 11 10 9 9 10 11 13
9 8 7 7 8 9 10 10 10 10 9 10 8 6 5 4 5 6 7 7 7 7 8 9 11 12 13 14 14 13 12 11 11 11 11 12 13 14
10 9 9 11 11 9 10 9 10 10 9 10 8 7 5 5 5 3 4 4 6 6 4 5 5 6 7 10 12 13 12 12 12 12 13 13 14 15
9 9 10 12 16 16 15 12 10 11 11 9 8 8 5 4 4 4 4 4 4 6 4 5 4 5 5 7 10 12 13 13 13 13 14 15 15 16
7 7 9 10 11 12 15 16 14 13 11 9 11 7 4 3 4 7 6 6 4 5 3 5 5 5 5 7 12 14 15 15 15 15 15 16 16 17
6 6 8 7 7 11 12 12 11 9 8 9 9 6 4 3 3 4 4 4 4 5 5 4 5 4 4 5 11 16 17 17 17 17 17 17 18 18
6 5 7 8 10 14 13 13 11 9 11 13 12 11 11 9 5 5 5 6 5 5 5 4 4 3 3 4 8 14 16 17 19 18 19 19 20 18
6 6 8 9 10 11 12 12 12 8 8 9 10 10 10 11 11 6 5 5 3 3 5 4 4 4 3 3 5 9 12 14 18 17 19 21 21 13
6 5 5 11 13 12 11 10 11 9 9 10 9 8 8 8 8 7 6 6 5 4 4 2 3 4 3 3 4 7 8 9 12 12 16 20 21 15
7 5 6 12 14 14 11 13 14 10 8 8 8 7 6 6 6 7 8 8 7 5 4 3 3 4 4 5 5 7 8 9 11 11 10 15 17 19
7 10 12 14 14 12 14 13 10 8 8 8 7 5 3 3 4 4 6 6 8 10 10 7 5 4 4 5 5 6 6 7 11 11 10 11 12 13
9 11 13 13 11 11 10 8 6 6 7 7 5 4 3 4 5 4 4 5 6 7 8 10 8 5 4 4 5 7 7 8 10 11 9 10 11 11
10 6 6 6 6 6 6 6 5 5 6 4 5 5 5 5 4 4 4 5 5 4 6 6 6 5 5 5 6 7 8 8 9 9 8 10 11 11
12 8 7 7 8 7 6 5 4 5 5 5 5 5 5 6 5 4 4 5 5 4 4 5 5 4 3 4 5 7 8 8 8 10 8 9 11 11
9 9 8 8 7 7 6 5 5 4 4 5 5 5 5 5 4 4 4 4 4 4 4 4 4 4 5 6 6 7 7 6 8 10 9 7 8 9
9 11 10 9 8 7 7 6 6 5 4 5 5 5 4 4 4 4 4 4 3 3 3 4 4 4 3 4 4 5 8 6 6 8 9 7 6 7
10 10 10 9 8 8 8 7 7 7 6 5 5 5 4 4 4 4 4 4 3 2 3 4 4 5 2 1 3 5 6 7 6 5 7 8 8 10
11 10 9 9 8 8 9 8 7 7 7 5 5 5 4 4 4 5 4 3 2 2 2 2 3 3 3 3 5 5 6 7 7 6 8 8 6 8
11 10 9 9 8 8 9 10 10 8 8 7 6 5 5 4 4 4 4 4 3 2 1 1 2 3 3 3 3 4 7 7 6 6 6 10 9 7
Wind_Direction
232 222 219 217 212 210 202 193 191 190 177 133 91 43 55 61 60 70 69 71 74 77 81 82 80 77 76 75 77 77 76 76 74 66 22 291 267 256
220 208 207 206 197 195 187 185 185 164 131 81 74 55 66 80 70 75 74 70 67 75 79 82 82 81 79 76 73 70 67 61 54 39 10 334 308 290
190 185 186 175 171 167 146 135 119 115 116 89 58 52 64 76 71 73 73 71 70 71 76 78 79 77 75 72 68 64 58 49 35 14 349 330 315 301
103 125 116 123 115 115 114 112 108 106 118 112 78 60 65 71 75 70 67 70 70 68 72 74 75 74 71 67 63 57 48 38 25 8 350 334 319 306
61 74 84 96 94 97 101 104 105 106 103 110 99 70 67 60 70 68 63 58 62 62 65 66 69 72 70 65 59 51 42 32 19 4 348 336 324 312
56 58 65 82 98 105 104 105 108 105 103 104 99 82 68 54 70 74 70 56 49 43 49 54 59 64 62 59 51 43 34 22 10 358 345 332 322 311
59 59 72 87 89 97 112 113 114 110 105 102 97 88 72 64 65 62 80 72 55 32 35 39 41 50 50 45 40 30 22 12 2 351 341 330 322 314
76 72 78 83 86 84 87 89 102 114 113 105 98 94 84 76 74 72 70 65 48 11 22 31 31 42 35 34 23 19 14 7 359 351 343 334 325 318
80 84 91 90 92 95 84 77 74 82 98 110 104 101 96 93 97 87 76 74 62 358 10 33 22 37 27 27 22 19 12 6 359 352 345 337 328 320
76 94 104 97 102 106 98 87 77 70 79 91 100 96 95 97 96 100 100 89 67 33 21 35 10 9 356 14 18 15 11 6 360 354 348 341 334 324
69 75 102 103 113 114 107 102 93 81 76 82 82 79 74 71 97 103 89 81 59 30 17 28 6 354 352 3 5 8 5 2 358 355 352 347 341 331
77 65 76 100 113 119 120 119 113 108 106 90 72 59 61 57 54 68 92 93 77 40 11 17 14 11 15 353 350 2 5 358 354 353 353 352 350 345
106 89 80 97 102 104 108 116 127 124 108 98 86 74 66 60 57 58 62 79 82 57 4 11 32 33 27 344 339 349 359 0 357 355 357 356 355 355
125 115 103 100 100 101 102 113 115 110 105 98 90 79 71 64 60 63 66 68 70 65 23 38 56 42 39 29 3 345 346 358 360 357 360 2 5 3
129 127 115 104 96 94 100 104 105 107 106 103 97 83 68 54 68 71 60 65 65 55 46 42 58 61 55 38 12 357 345 349 358 359 2 12 13 10
121 113 101 92 89 89 86 84 87 99 110 109 102 89 82 79 67 65 63 57 59 42 36 39 40 52 50 34 24 14 5 358 358 359 1 15 19 20
134 119 113 113 108 101 94 91 93 100 100 103 108 104 93 86 75 66 69 68 65 44 21 12 21 51 60 39 26 16 9 9 4 1 7 19 22 19
138 143 145 145 144 140 131 116 109 111 114 119 116 113 109 104 97 85 80 78 71 50 28 7 3 32 50 61 38 10 9 7 3 7 14 18 20 15
146 158 162 163 161 156 151 144 140 135 131 132 127 125 121 116 112 105 98 87 73 55 35 22 22 32 31 24 19 24 4 357 3 13 16 15 11 3
166 170 172 173 171 168 165 156 146 144 142 141 137 136 135 130 125 120 113 103 84 59 43 36 29 20 15 360 341 350 6 2 360 5 6 6 8 353
176 176 178 178 179 177 173 167 163 163 160 156 153 151 150 142 136 134 127 115 99 72 48 27 350 327 282 324 10 13 12 13 11 359 356 4 8 13
179 180 182 183 182 179 175 172 171 172 171 173 170 166 163 160 156 155 154 148 133 104 64 29 7 28 50 39 24 6 1 4 8 21 33 28 13 13
181 181 181 182 181 178 177 178 180 185 186 187 184 179 173 170 168 168 170 171 164 154 112 55 38 43 41 24 13 8 6 4 1 5 18 15 21 27
Height
1423 1424 1425 1426 1427 1429 1431 1432 1435 1437 1439 1441 1441 1443 1445 1447 1448 1449 1451 1452 1453 1454 1455 1456 1458 1459 1460 1462 1464 1466 1469 1472 1475 1478 1481 1483 1486 1488
1418 1419 1420 1421 1422 1424 1425 1427 1430 1432 1435 1437 1439 1442 1444 1446 1447 1449 1450 1451 1452 1453 1454 1455 1457 1457 1458 1460 1461 1463 1465 1467 1470 1472 1474 1477 1479 1481
1414 1415 1416 1417 1419 1420 1422 1424 1426 1429 1431 1436 1439 1442 1445 1447 1448 1449 1450 1451 1452 1453 1454 1455 1456 1457 1457 1459 1460 1461 1463 1464 1466 1468 1469 1471 1472 1474
1412 1413 1414 1415 1417 1419 1421 1423 1426 1429 1432 1436 1440 1444 1446 1448 1450 1451 1451 1452 1453 1453 1454 1455 1456 1456 1457 1457 1458 1459 1460 1461 1462 1463 1464 1465 1466 1466
1412 1412 1414 1416 1418 1419 1422 1424 1428 1431 1435 1438 1442 1446 1448 1450 1451 1452 1453 1453 1454 1455 1455 1455 1456 1456 1456 1457 1457 1457 1458 1459 1459 1459 1459 1459 1459 1459
1414 1415 1416 1418 1420 1422 1424 1427 1431 1434 1438 1441 1444 1447 1450 1451 1453 1454 1454 1455 1456 1456 1457 1457 1457 1457 1457 1457 1456 1456 1456 1456 1456 1455 1455 1454 1454 1453
1418 1419 1421 1422 1423 1426 1428 1432 1435 1438 1441 1444 1447 1449 1452 1453 1454 1456 1456 1457 1457 1458 1458 1458 1458 1458 1458 1457 1457 1456 1455 1454 1453 1452 1451 1450 1448 1446
1424 1425 1426 1427 1429 1432 1435 1438 1440 1442 1444 1446 1449 1451 1453 1455 1456 1457 1458 1458 1458 1460 1460 1460 1459 1459 1458 1458 1457 1456 1454 1453 1451 1449 1447 1445 1442 1440
1429 1430 1431 1433 1435 1437 1439 1442 1445 1447 1449 1450 1451 1454 1455 1457 1458 1458 1459 1459 1460 1461 1461 1460 1460 1459 1459 1458 1457 1455 1453 1451 1449 1446 1444 1441 1438 1435
1434 1436 1437 1438 1440 1442 1443 1445 1448 1450 1452 1454 1455 1456 1458 1459 1460 1460 1461 1461 1461 1462 1461 1461 1461 1460 1459 1458 1457 1455 1453 1450 1447 1444 1441 1437 1434 1430
1437 1439 1440 1442 1444 1445 1447 1448 1450 1453 1455 1456 1458 1459 1460 1461 1461 1462 1462 1462 1462 1463 1462 1462 1461 1461 1460 1459 1457 1455 1452 1450 1446 1443 1438 1434 1429 1425
1439 1440 1442 1444 1445 1447 1449 1450 1452 1455 1457 1458 1460 1461 1462 1462 1463 1463 1463 1463 1463 1463 1464 1463 1462 1461 1460 1459 1457 1454 1452 1448 1445 1441 1437 1431 1426 1421
1439 1441 1443 1444 1446 1449 1451 1452 1454 1457 1459 1460 1461 1462 1463 1464 1464 1464 1465 1465 1464 1464 1465 1463 1462 1461 1461 1459 1457 1454 1450 1447 1443 1439 1435 1430 1425 1419
1440 1442 1444 1446 1448 1450 1452 1454 1456 1458 1460 1461 1462 1464 1465 1465 1466 1466 1466 1466 1466 1466 1465 1464 1463 1462 1461 1459 1457 1454 1451 1447 1442 1438 1434 1429 1424 1419
1441 1443 1445 1448 1450 1451 1454 1456 1458 1459 1461 1462 1464 1465 1466 1467 1468 1468 1468 1468 1468 1467 1466 1466 1465 1464 1462 1461 1458 1455 1451 1447 1443 1439 1434 1429 1424 1418
1442 1444 1447 1449 1451 1453 1455 1457 1459 1460 1462 1463 1465 1466 1468 1469 1469 1470 1470 1470 1470 1469 1469 1468 1467 1466 1464 1462 1460 1457 1454 1450 1445 1440 1436 1431 1426 1421
1441 1444 1447 1450 1452 1454 1456 1458 1460 1461 1463 1465 1466 1468 1469 1470 1471 1472 1472 1472 1471 1471 1471 1470 1469 1467 1466 1464 1462 1459 1456 1452 1447 1442 1438 1433 1428 1423
1440 1443 1447 1450 1453 1455 1457 1459 1461 1463 1465 1466 1468 1469 1470 1471 1472 1473 1473 1473 1473 1472 1472 1471 1470 1469 1468 1465 1464 1461 1458 1454 1450 1445 1441 1436 1431 1427
1439 1442 1446 1450 1453 1456 1458 1460 1462 1464 1465 1467 1469 1470 1471 1472 1473 1473 1474 1474 1474 1473 1473 1472 1471 1470 1469 1467 1465 1463 1459 1456 1452 1448 1444 1439 1435 1431
1436 1440 1445 1449 1452 1455 1458 1460 1462 1464 1466 1468 1469 1471 1472 1472 1473 1474 1474 1474 1474 1474 1473 1473 1472 1471 1470 1469 1467 1464 1461 1458 1454 1450 1447 1443 1439 1435
1433 1438 1443 1447 1451 1454 1457 1459 1462 1464 1466 1468 1470 1471 1472 1473 1473 1474 1474 1475 1475 1475 1474 1473 1472 1472 1470 1469 1467 1465 1462 1459 1456 1452 1449 1445 1441 1436
1430 1435 1440 1445 1449 1452 1455 1458 1461 1464 1466 1468 1469 1471 1472 1473 1473 1474 1474 1475 1475 1475 1474 1474 1473 1472 1471 1469 1467 1465 1463 1460 1457 1454 1451 1448 1444 1440
1427 1433 1438 1443 1447 1450 1454 1457 1459 1462 1465 1467 1469 1470 1471 1472 1473 1474 1474 1474 1475 1475 1474 1474 1473 1472 1470 1469 1467 1465 1463 1461 1458 1456 1453 1450 1447 1445